Flag for Netherlands Weather past 2 weeks in Utrecht, Netherlands

Now
77 °F

Sunny.


Feels Like: 79 °F
Forecast: 63 / 79 °F
Wind: 16 mph from East

Location: Amsterdam Schiphol Airport

Current Time: Jul 23, 2014 at 12:54:38 PM

Latest Report: Jul 23, 2014 at 11:55 AM


Visibility: 10 mi

Pressure: 30.12 "Hg

Humidity: 57%

Dew point: 61 °F

Location of UtrechtLocation

Historic Weather in Utrecht — Graph

°F

Utrecht temperature yesterday

Maximum temperature yesterday: 81 °F (at 4:25 PM)
Minimum temperature yesterday: 66 °F (at 12:25 AM)
Average temperature yesterday: 72 °F

Past Weeks' High & Low Weather Summary

 TemperatureHumidityPressure
High93 °F (Jul 19, 3:55 PM)100% (Jul 9, 3:55 PM)30.18 "Hg (Jul 9, 3:55 PM)
Low55 °F (Jul 9, 4:55 AM)30% (Jul 19, 3:55 PM)29.71 "Hg (Jul 13, 2:55 PM)
Average69 °F81%29.94 "Hg
* Reported Jul 8 11:25 AM — Jul 23 11:25 AM, Utrecht, Weather by CustomWeather, © 2014

Note: Actual official high and low records may vary slightly from our data, if they occured in-between our weather recording intervals... More about our weather records

Advertising

Utrecht weather history for previous 24 hours

 ConditionsComfort  
Time TempWeatherWind HumidityBarometerVisibility
11:25 AM
Jul 23
77 °FPassing clouds.16 mph61%30.12 "HgN/A
10:55 AM75 °FPassing clouds.15 mph65%30.12 "HgN/A
10:25 AM73 °FPassing clouds.15 mph69%30.12 "HgN/A
9:55 AM73 °FPassing clouds.14 mph69%30.12 "HgN/A
7:55 AM70 °FPassing clouds.14 mph73%30.12 "HgN/A
7:25 AM70 °FSunny.14 mph73%30.12 "Hg10 mi
6:55 AM68 °FSunny.10 mph83%30.12 "Hg10 mi
6:25 AM70 °FClear.10 mph78%30.12 "Hg10 mi
5:55 AM70 °FClear.10 mph78%30.12 "Hg10 mi
5:25 AM68 °FClear.10 mph88%30.09 "Hg10 mi
4:55 AM70 °FClear.9 mph83%30.12 "Hg10 mi
4:25 AM70 °FClear.10 mph83%30.12 "Hg10 mi
3:55 AM70 °FClear.8 mph83%30.12 "Hg10 mi
3:25 AM70 °FClear.10 mph83%30.12 "Hg10 mi
2:55 AM70 °FPassing clouds.8 mph83%30.12 "HgN/A
2:25 AM70 °FPassing clouds.8 mph78%30.12 "HgN/A
1:55 AM70 °FClear.8 mph78%30.12 "Hg10 mi
6:55 PM
Jul 22
79 °FPassing clouds.16 mph61%30.09 "HgN/A
6:25 PM79 °FPassing clouds.17 mph61%30.09 "HgN/A
5:55 PM79 °FPassing clouds.16 mph58%30.09 "HgN/A
5:25 PM79 °FPassing clouds.15 mph58%30.09 "HgN/A
4:55 PM79 °FPassing clouds.14 mph58%30.09 "HgN/A
4:25 PM81 °FPassing clouds.14 mph58%30.09 "HgN/A
3:55 PM79 °FPassing clouds.15 mph61%30.09 "HgN/A
3:25 PM79 °FPassing clouds.15 mph58%30.09 "HgN/A
2:55 PM79 °FPassing clouds.16 mph58%30.09 "HgN/A
2:25 PM77 °FPassing clouds.16 mph61%30.09 "HgN/A
1:55 PM77 °FPassing clouds.15 mph61%30.09 "HgN/A
1:25 PM75 °FSunny.15 mph65%30.09 "Hg10 mi
12:55 PM75 °FPassing clouds.15 mph69%30.09 "HgN/A
12:25 PM75 °FPassing clouds.15 mph65%30.09 "HgN/A
Weather by CustomWeather, © 2014

See weather overviewHow to use our weather pages